Time,TemperatureF,DewpointF,PressureIn,WindDirection,WindDirectionDegrees,WindSpeedMPH,WindSpeedGustMPH,Humidity,HourlyPrecipIn,Conditions,Clouds,dailyrainin,SoftwareType,DateUTC
2013-03-19 00:00:00,32.8,30.7,30.17,North,-999,-999.0,-999.0,89,-99.99,,,-99.99,Homeseer,2013-03-19 04:00:00,
2013-03-19 00:01:00,32.9,30.8,30.18,North,-999,-999.0,-999.0,89,-99.99,,,-99.99,Homeseer,2013-03-19 04:01:00,
2013-03-19 00:03:00,32.8,30.9,30.17,North,-999,-999.0,-999.0,90,-99.99,,,-99.99,Homeseer,2013-03-19 04:03:00,
2013-03-19 00:04:00,32.7,30.8,30.17,North,-999,-999.0,-999.0,90,-99.99,,,-99.99,Homeseer,2013-03-19 04:04:00,
2013-03-19 00:09:00,32.7,30.8,30.17,North,-999,-999.0,-999.0,90,-99.99,,,-99.99,Homeseer,2013-03-19 04:09:00,
2013-03-19 00:14:00,32.7,30.8,30.16,North,-999,-999.0,-999.0,90,-99.99,,,-99.99,Homeseer,2013-03-19 04:14:00,
2013-03-19 00:20:00,32.6,30.7,30.15,North,-999,-999.0,-999.0,90,-99.99,,,-99.99,Homeseer,2013-03-19 04:20:00,
2013-03-19 00:25:00,32.6,30.9,30.15,North,-999,-999.0,-999.0,91,-99.99,,,-99.99,Homeseer,2013-03-19 04:25:00,
2013-03-19 00:30:00,32.7,31.0,30.14,North,-999,-999.0,-999.0,91,-99.99,,,-99.99,Homeseer,2013-03-19 04:30:00,
2013-03-19 00:35:00,32.4,30.7,30.13,North,-999,-999.0,-999.0,91,-99.99,,,-99.99,Homeseer,2013-03-19 04:35:00,
2013-03-19 00:40:00,32.4,30.7,30.12,North,-999,-999.0,-999.0,91,-99.99,,,-99.99,Homeseer,2013-03-19 04:40:00,
2013-03-19 00:45:00,32.6,30.9,30.12,North,-999,-999.0,-999.0,91,-99.99,,,-99.99,Homeseer,2013-03-19 04:45:00,
2013-03-19 00:50:00,32.6,30.7,30.12,North,-999,-999.0,-999.0,90,-99.99,,,-99.99,Homeseer,2013-03-19 04:50:00,
2013-03-19 00:55:00,32.6,30.9,30.11,North,-999,-999.0,-999.0,91,-99.99,,,-99.99,Homeseer,2013-03-19 04:55:00,
2013-03-19 01:00:00,32.4,30.7,30.11,North,-999,-999.0,-999.0,91,-99.99,,,-99.99,Homeseer,2013-03-19 05:00:00,
2013-03-19 01:05:00,32.3,30.6,30.10,North,-999,-999.0,-999.0,91,-99.99,,,-99.99,Homeseer,2013-03-19 05:05:00,
2013-03-19 01:10:00,32.2,30.7,30.09,North,-999,-999.0,-999.0,92,-99.99,,,-99.99,Homeseer,2013-03-19 05:10:00,
2013-03-19 01:15:00,32.1,30.6,30.08,North,-999,-999.0,-999.0,92,-99.99,,,-99.99,Homeseer,2013-03-19 05:15:00,
2013-03-19 01:20:00,32.1,30.8,30.09,North,-999,-999.0,-999.0,93,-99.99,,,-99.99,Homeseer,2013-03-19 05:20:00,
2013-03-19 01:25:00,32.2,30.7,30.08,North,-999,-999.0,-999.0,92,-99.99,,,-99.99,Homeseer,2013-03-19 05:25:00,
2013-03-19 01:30:00,32.1,30.6,30.07,North,-999,-999.0,-999.0,92,-99.99,,,-99.99,Homeseer,2013-03-19 05:30:00,
2013-03-19 01:35:00,32.3,31.0,30.07,North,-999,-999.0,-999.0,93,-99.99,,,-99.99,Homeseer,2013-03-19 05:35:00,
2013-03-19 01:40:00,32.2,30.9,30.07,North,-999,-999.0,-999.0,93,-99.99,,,-99.99,Homeseer,2013-03-19 05:40:00,
2013-03-19 01:45:00,32.2,30.9,30.05,North,-999,-999.0,-999.0,93,-99.99,,,-99.99,Homeseer,2013-03-19 05:45:00,
2013-03-19 01:50:00,32.1,30.8,30.05,North,-999,-999.0,-999.0,93,-99.99,,,-99.99,Homeseer,2013-03-19 05:50:00,
2013-03-19 01:55:00,32.2,30.9,30.04,North,-999,-999.0,-999.0,93,-99.99,,,-99.99,Homeseer,2013-03-19 05:55:00,
2013-03-19 02:00:00,32.2,30.9,30.04,North,-999,-999.0,-999.0,93,-99.99,,,-99.99,Homeseer,2013-03-19 06:00:00,
2013-03-19 02:05:00,32.3,31.2,30.03,North,-999,-999.0,-999.0,94,-99.99,,,-99.99,Homeseer,2013-03-19 06:05:00,
2013-03-19 02:10:00,32.2,31.1,30.03,North,-999,-999.0,-999.0,94,-99.99,,,-99.99,Homeseer,2013-03-19 06:10:00,
2013-03-19 02:15:00,32.1,31.0,30.02,North,-999,-999.0,-999.0,94,-99.99,,,-99.99,Homeseer,2013-03-19 06:15:00,
2013-03-19 02:20:00,32.2,31.1,30.01,North,-999,-999.0,-999.0,94,-99.99,,,-99.99,Homeseer,2013-03-19 06:20:00,
2013-03-19 02:25:00,31.9,30.8,30.00,North,-999,-999.0,-999.0,94,-99.99,,,-99.99,Homeseer,2013-03-19 06:25:00,
2013-03-19 02:30:00,32.3,31.2,30.00,North,-999,-999.0,-999.0,94,-99.99,,,-99.99,Homeseer,2013-03-19 06:30:00,
2013-03-19 02:35:00,32.4,31.3,30.00,North,-999,-999.0,-999.0,94,-99.99,,,-99.99,Homeseer,2013-03-19 06:35:00,
2013-03-19 02:40:00,32.3,31.2,29.99,North,-999,-999.0,-999.0,94,-99.99,,,-99.99,Homeseer,2013-03-19 06:40:00,
2013-03-19 02:45:00,32.4,31.3,29.99,North,-999,-999.0,-999.0,94,-99.99,,,-99.99,Homeseer,2013-03-19 06:45:00,
2013-03-19 02:50:00,32.3,31.4,29.99,North,-999,-999.0,-999.0,95,-99.99,,,-99.99,Homeseer,2013-03-19 06:50:00,
2013-03-19 02:55:00,32.6,31.7,29.98,North,-999,-999.0,-999.0,95,-99.99,,,-99.99,Homeseer,2013-03-19 06:55:00,
2013-03-19 03:00:00,32.7,31.6,29.99,North,-999,-999.0,-999.0,94,-99.99,,,-99.99,Homeseer,2013-03-19 07:00:00,
2013-03-19 03:05:00,32.6,31.7,29.97,North,-999,-999.0,-999.0,95,-99.99,,,-99.99,Homeseer,2013-03-19 07:05:00,
2013-03-19 03:10:00,32.7,31.8,29.97,North,-999,-999.0,-999.0,95,-99.99,,,-99.99,Homeseer,2013-03-19 07:10:00,
2013-03-19 03:15:00,32.8,31.9,29.97,North,-999,-999.0,-999.0,95,-99.99,,,-99.99,Homeseer,2013-03-19 07:15:00,
2013-03-19 03:20:00,32.8,31.9,29.97,North,-999,-999.0,-999.0,95,-99.99,,,-99.99,Homeseer,2013-03-19 07:20:00,
2013-03-19 03:25:00,33.0,32.1,29.97,North,-999,-999.0,-999.0,95,-99.99,,,-99.99,Homeseer,2013-03-19 07:25:00,
2013-03-19 03:30:00,32.9,32.0,29.97,North,-999,-999.0,-999.0,95,-99.99,,,-99.99,Homeseer,2013-03-19 07:30:00,
2013-03-19 03:35:00,33.1,32.2,29.97,North,-999,-999.0,-999.0,95,-99.99,,,-99.99,Homeseer,2013-03-19 07:35:00,
2013-03-19 03:40:00,33.1,32.2,29.97,North,-999,-999.0,-999.0,95,-99.99,,,-99.99,Homeseer,2013-03-19 07:40:00,
2013-03-19 03:45:00,33.1,32.2,29.97,North,-999,-999.0,-999.0,95,-99.99,,,-99.99,Homeseer,2013-03-19 07:45:00,
2013-03-19 03:50:00,33.1,32.2,29.96,North,-999,-999.0,-999.0,95,-99.99,,,-99.99,Homeseer,2013-03-19 07:50:00,
2013-03-19 03:55:00,33.1,32.0,29.96,North,-999,-999.0,-999.0,94,-99.99,,,-99.99,Homeseer,2013-03-19 07:55:00,
2013-03-19 04:00:00,33.2,32.3,29.96,North,-999,-999.0,-999.0,95,-99.99,,,-99.99,Homeseer,2013-03-19 08:00:00,
2013-03-19 04:05:00,33.1,32.4,29.95,North,-999,-999.0,-999.0,96,-99.99,,,-99.99,Homeseer,2013-03-19 08:05:00,
2013-03-19 04:10:00,33.4,32.5,29.94,North,-999,-999.0,-999.0,95,-99.99,,,-99.99,Homeseer,2013-03-19 08:10:00,
2013-03-19 04:15:00,33.4,32.5,29.95,North,-999,-999.0,-999.0,95,-99.99,,,-99.99,Homeseer,2013-03-19 08:15:00,
2013-03-19 04:20:00,33.0,32.1,29.93,North,-999,-999.0,-999.0,95,-99.99,,,-99.99,Homeseer,2013-03-19 08:20:00,
2013-03-19 04:25:00,32.9,32.0,29.94,North,-999,-999.0,-999.0,95,-99.99,,,-99.99,Homeseer,2013-03-19 08:25:00,
2013-03-19 04:30:00,32.9,32.0,29.93,North,-999,-999.0,-999.0,95,-99.99,,,-99.99,Homeseer,2013-03-19 08:30:00,
2013-03-19 04:35:00,33.0,32.3,29.93,North,-999,-999.0,-999.0,96,-99.99,,,-99.99,Homeseer,2013-03-19 08:35:00,
2013-03-19 04:40:00,33.0,32.1,29.92,North,-999,-999.0,-999.0,95,-99.99,,,-99.99,Homeseer,2013-03-19 08:40:00,
2013-03-19 04:45:00,32.9,32.0,29.91,North,-999,-999.0,-999.0,95,-99.99,,,-99.99,Homeseer,2013-03-19 08:45:00,
2013-03-19 04:50:00,32.9,32.0,29.91,North,-999,-999.0,-999.0,95,-99.99,,,-99.99,Homeseer,2013-03-19 08:50:00,
2013-03-19 04:55:00,32.8,32.1,29.89,North,-999,-999.0,-999.0,96,-99.99,,,-99.99,Homeseer,2013-03-19 08:55:00,
2013-03-19 05:00:00,32.8,32.1,29.90,North,-999,-999.0,-999.0,96,-99.99,,,-99.99,Homeseer,2013-03-19 09:00:00,
2013-03-19 05:05:00,32.9,32.2,29.90,North,-999,-999.0,-999.0,96,-99.99,,,-99.99,Homeseer,2013-03-19 09:05:00,
2013-03-19 05:10:00,33.0,32.3,29.91,North,-999,-999.0,-999.0,96,-99.99,,,-99.99,Homeseer,2013-03-19 09:10:00,
2013-03-19 05:15:00,33.1,32.4,29.91,North,-999,-999.0,-999.0,96,-99.99,,,-99.99,Homeseer,2013-03-19 09:15:00,
2013-03-19 05:20:00,33.4,32.7,29.91,North,-999,-999.0,-999.0,96,-99.99,,,-99.99,Homeseer,2013-03-19 09:20:00,
2013-03-19 05:25:00,33.4,32.7,29.90,North,-999,-999.0,-999.0,96,-99.99,,,-99.99,Homeseer,2013-03-19 09:25:00,
2013-03-19 05:30:00,33.5,32.8,29.90,North,-999,-999.0,-999.0,96,-99.99,,,-99.99,Homeseer,2013-03-19 09:30:00,
2013-03-19 05:35:00,33.5,32.8,29.90,North,-999,-999.0,-999.0,96,-99.99,,,-99.99,Homeseer,2013-03-19 09:35:00,
2013-03-19 05:40:00,33.5,33.0,29.90,North,-999,-999.0,-999.0,97,-99.99,,,-99.99,Homeseer,2013-03-19 09:40:00,
2013-03-19 05:45:00,33.7,33.2,29.90,North,-999,-999.0,-999.0,97,-99.99,,,-99.99,Homeseer,2013-03-19 09:45:00,
2013-03-19 05:50:00,33.7,33.2,29.90,North,-999,-999.0,-999.0,97,-99.99,,,-99.99,Homeseer,2013-03-19 09:50:00,
2013-03-19 05:55:00,33.8,33.3,29.90,North,-999,-999.0,-999.0,97,-99.99,,,-99.99,Homeseer,2013-03-19 09:55:00,
2013-03-19 06:00:00,33.8,33.3,29.89,North,-999,-999.0,-999.0,97,-99.99,,,-99.99,Homeseer,2013-03-19 10:00:00,
2013-03-19 06:05:00,33.9,33.5,29.89,North,-999,-999.0,-999.0,98,-99.99,,,-99.99,Homeseer,2013-03-19 10:05:00,
2013-03-19 06:10:00,33.9,33.4,29.88,North,-999,-999.0,-999.0,97,-99.99,,,-99.99,Homeseer,2013-03-19 10:10:00,
2013-03-19 06:15:00,34.2,33.7,29.89,North,-999,-999.0,-999.0,97,-99.99,,,-99.99,Homeseer,2013-03-19 10:15:00,
2013-03-19 06:20:00,34.1,33.6,29.88,North,-999,-999.0,-999.0,97,-99.99,,,-99.99,Homeseer,2013-03-19 10:20:00,
2013-03-19 06:25:00,33.9,33.4,29.88,North,-999,-999.0,-999.0,97,-99.99,,,-99.99,Homeseer,2013-03-19 10:25:00,
2013-03-19 06:30:00,33.7,33.3,29.88,North,-999,-999.0,-999.0,98,-99.99,,,-99.99,Homeseer,2013-03-19 10:30:00,
2013-03-19 06:35:00,34.0,33.5,29.87,North,-999,-999.0,-999.0,97,-99.99,,,-99.99,Homeseer,2013-03-19 10:35:00,
2013-03-19 06:40:00,34.2,33.7,29.87,North,-999,-999.0,-999.0,97,-99.99,,,-99.99,Homeseer,2013-03-19 10:40:00,
2013-03-19 06:45:00,34.1,33.6,29.86,North,-999,-999.0,-999.0,97,-99.99,,,-99.99,Homeseer,2013-03-19 10:45:00,
2013-03-19 06:50:00,34.2,33.7,29.86,North,-999,-999.0,-999.0,97,-99.99,,,-99.99,Homeseer,2013-03-19 10:50:00,
2013-03-19 06:55:00,34.1,33.6,29.85,North,-999,-999.0,-999.0,97,-99.99,,,-99.99,Homeseer,2013-03-19 10:55:00,
2013-03-19 07:00:00,33.9,33.4,29.85,North,-999,-999.0,-999.0,97,-99.99,,,-99.99,Homeseer,2013-03-19 11:00:00,
2013-03-19 07:05:00,33.9,33.4,29.85,North,-999,-999.0,-999.0,97,-99.99,,,-99.99,Homeseer,2013-03-19 11:05:00,
2013-03-19 07:10:00,34.0,33.5,29.84,North,-999,-999.0,-999.0,97,-99.99,,,-99.99,Homeseer,2013-03-19 11:10:00,
2013-03-19 07:15:00,34.1,33.6,29.84,North,-999,-999.0,-999.0,97,-99.99,,,-99.99,Homeseer,2013-03-19 11:15:00,
2013-03-19 07:20:00,34.1,33.4,29.83,North,-999,-999.0,-999.0,96,-99.99,,,-99.99,Homeseer,2013-03-19 11:20:00,
2013-03-19 07:25:00,34.2,33.7,29.83,North,-999,-999.0,-999.0,97,-99.99,,,-99.99,Homeseer,2013-03-19 11:25:00,
2013-03-19 07:30:00,34.2,33.7,29.83,North,-999,-999.0,-999.0,97,-99.99,,,-99.99,Homeseer,2013-03-19 11:30:00,
2013-03-19 07:35:00,34.2,33.7,29.82,North,-999,-999.0,-999.0,97,-99.99,,,-99.99,Homeseer,2013-03-19 11:35:00,
2013-03-19 07:40:00,34.4,33.9,29.81,North,-999,-999.0,-999.0,97,-99.99,,,-99.99,Homeseer,2013-03-19 11:40:00,
2013-03-19 07:45:00,34.2,33.7,29.81,North,-999,-999.0,-999.0,97,-99.99,,,-99.99,Homeseer,2013-03-19 11:45:00,
2013-03-19 07:50:00,34.4,33.9,29.81,North,-999,-999.0,-999.0,97,-99.99,,,-99.99,Homeseer,2013-03-19 11:50:00,
2013-03-19 07:55:00,34.6,33.7,29.81,North,-999,-999.0,-999.0,95,-99.99,,,-99.99,Homeseer,2013-03-19 11:55:00,
2013-03-19 08:00:00,34.7,34.2,29.81,North,-999,-999.0,-999.0,97,-99.99,,,-99.99,Homeseer,2013-03-19 12:00:00,
2013-03-19 08:05:00,34.8,34.3,29.80,North,-999,-999.0,-999.0,97,-99.99,,,-99.99,Homeseer,2013-03-19 12:05:00,
2013-03-19 08:10:00,34.8,34.3,29.80,North,-999,-999.0,-999.0,97,-99.99,,,-99.99,Homeseer,2013-03-19 12:10:00,
2013-03-19 08:15:00,35.0,34.5,29.80,North,-999,-999.0,-999.0,97,-99.99,,,-99.99,Homeseer,2013-03-19 12:15:00,
2013-03-19 08:20:00,35.3,34.7,29.79,North,-999,-999.0,-999.0,97,-99.99,,,-99.99,Homeseer,2013-03-19 12:20:00,
2013-03-19 08:25:00,35.3,34.7,29.79,North,-999,-999.0,-999.0,97,-99.99,,,-99.99,Homeseer,2013-03-19 12:25:00,
2013-03-19 08:30:00,35.3,34.7,29.79,North,-999,-999.0,-999.0,97,-99.99,,,-99.99,Homeseer,2013-03-19 12:30:00,
2013-03-19 08:35:00,35.2,34.7,29.78,North,-999,-999.0,-999.0,97,-99.99,,,-99.99,Homeseer,2013-03-19 12:35:00,
2013-03-19 08:40:00,35.3,34.6,29.78,North,-999,-999.0,-999.0,96,-99.99,,,-99.99,Homeseer,2013-03-19 12:40:00,
2013-03-19 08:45:00,35.4,34.8,29.77,North,-999,-999.0,-999.0,97,-99.99,,,-99.99,Homeseer,2013-03-19 12:45:00,
2013-03-19 08:50:00,35.5,34.9,29.77,North,-999,-999.0,-999.0,97,-99.99,,,-99.99,Homeseer,2013-03-19 12:50:00,
2013-03-19 08:55:00,35.5,34.9,29.75,North,-999,-999.0,-999.0,97,-99.99,,,-99.99,Homeseer,2013-03-19 12:55:00,
2013-03-19 09:00:00,35.3,34.7,29.75,North,-999,-999.0,-999.0,97,-99.99,,,-99.99,Homeseer,2013-03-19 13:00:00,
2013-03-19 09:05:00,35.5,34.9,29.75,North,-999,-999.0,-999.0,97,-99.99,,,-99.99,Homeseer,2013-03-19 13:05:00,
2013-03-19 09:10:00,35.6,35.0,29.75,North,-999,-999.0,-999.0,97,-99.99,,,-99.99,Homeseer,2013-03-19 13:10:00,
2013-03-19 09:15:00,35.8,35.2,29.75,North,-999,-999.0,-999.0,97,-99.99,,,-99.99,Homeseer,2013-03-19 13:15:00,
2013-03-19 09:20:00,35.6,35.0,29.74,North,-999,-999.0,-999.0,97,-99.99,,,-99.99,Homeseer,2013-03-19 13:20:00,
2013-03-19 09:25:00,35.8,35.2,29.75,North,-999,-999.0,-999.0,97,-99.99,,,-99.99,Homeseer,2013-03-19 13:25:00,
2013-03-19 09:30:00,35.9,35.3,29.73,North,-999,-999.0,-999.0,97,-99.99,,,-99.99,Homeseer,2013-03-19 13:30:00,
2013-03-19 09:35:00,36.0,35.4,29.73,North,-999,-999.0,-999.0,97,-99.99,,,-99.99,Homeseer,2013-03-19 13:35:00,
2013-03-19 09:40:00,35.9,35.2,29.72,North,-999,-999.0,-999.0,96,-99.99,,,-99.99,Homeseer,2013-03-19 13:40:00,
2013-03-19 09:46:00,36.3,35.7,29.72,North,-999,-999.0,-999.0,97,-99.99,,,-99.99,Homeseer,2013-03-19 13:46:00,
2013-03-19 09:51:00,36.5,35.9,29.71,North,-999,-999.0,-999.0,97,-99.99,,,-99.99,Homeseer,2013-03-19 13:51:00,
2013-03-19 09:56:00,36.6,36.0,29.71,North,-999,-999.0,-999.0,97,-99.99,,,-99.99,Homeseer,2013-03-19 13:56:00,
2013-03-19 10:02:00,36.6,35.9,29.72,North,-999,-999.0,-999.0,96,-99.99,,,-99.99,Homeseer,2013-03-19 14:02:00,
2013-03-19 10:07:00,36.5,35.8,29.72,North,-999,-999.0,-999.0,96,-99.99,,,-99.99,Homeseer,2013-03-19 14:07:00,
2013-03-19 10:12:00,36.6,35.9,29.72,North,-999,-999.0,-999.0,96,-99.99,,,-99.99,Homeseer,2013-03-19 14:12:00,
2013-03-19 10:17:00,36.6,35.9,29.71,North,-999,-999.0,-999.0,96,-99.99,,,-99.99,Homeseer,2013-03-19 14:17:00,
2013-03-19 10:22:00,36.6,35.9,29.69,North,-999,-999.0,-999.0,96,-99.99,,,-99.99,Homeseer,2013-03-19 14:22:00,
2013-03-19 10:27:00,36.5,35.9,29.70,North,-999,-999.0,-999.0,97,-99.99,,,-99.99,Homeseer,2013-03-19 14:27:00,
2013-03-19 10:32:00,36.6,36.0,29.70,North,-999,-999.0,-999.0,97,-99.99,,,-99.99,Homeseer,2013-03-19 14:32:00,
2013-03-19 10:38:00,36.4,35.8,29.69,North,-999,-999.0,-999.0,97,-99.99,,,-99.99,Homeseer,2013-03-19 14:38:00,
2013-03-19 10:43:00,36.5,35.9,29.68,North,-999,-999.0,-999.0,97,-99.99,,,-99.99,Homeseer,2013-03-19 14:43:00,
2013-03-19 10:48:00,36.6,36.0,29.67,North,-999,-999.0,-999.0,97,-99.99,,,-99.99,Homeseer,2013-03-19 14:48:00,
2013-03-19 10:53:00,36.8,36.2,29.67,North,-999,-999.0,-999.0,97,-99.99,,,-99.99,Homeseer,2013-03-19 14:53:00,
2013-03-19 10:58:00,37.0,36.4,29.67,North,-999,-999.0,-999.0,97,-99.99,,,-99.99,Homeseer,2013-03-19 14:58:00,
2013-03-19 11:03:00,37.0,36.4,29.66,North,-999,-999.0,-999.0,97,-99.99,,,-99.99,Homeseer,2013-03-19 15:03:00,
2013-03-19 11:08:00,37.1,36.5,29.65,North,-999,-999.0,-999.0,97,-99.99,,,-99.99,Homeseer,2013-03-19 15:08:00,
2013-03-19 11:13:00,37.1,36.4,29.64,North,-999,-999.0,-999.0,96,-99.99,,,-99.99,Homeseer,2013-03-19 15:13:00,
2013-03-19 11:18:00,37.2,36.5,29.63,North,-999,-999.0,-999.0,96,-99.99,,,-99.99,Homeseer,2013-03-19 15:18:00,
2013-03-19 11:23:00,37.2,36.5,29.64,North,-999,-999.0,-999.0,96,-99.99,,,-99.99,Homeseer,2013-03-19 15:23:00,
2013-03-19 11:28:00,37.0,36.3,29.64,North,-999,-999.0,-999.0,96,-99.99,,,-99.99,Homeseer,2013-03-19 15:28:00,
2013-03-19 11:33:00,36.8,35.9,29.63,North,-999,-999.0,-999.0,95,-99.99,,,-99.99,Homeseer,2013-03-19 15:33:00,
2013-03-19 11:38:00,37.1,36.4,29.62,North,-999,-999.0,-999.0,96,-99.99,,,-99.99,Homeseer,2013-03-19 15:38:00,
2013-03-19 11:43:00,37.3,36.6,29.63,North,-999,-999.0,-999.0,96,-99.99,,,-99.99,Homeseer,2013-03-19 15:43:00,
2013-03-19 11:48:00,37.1,36.2,29.62,North,-999,-999.0,-999.0,95,-99.99,,,-99.99,Homeseer,2013-03-19 15:48:00,
2013-03-19 11:53:00,36.7,35.8,29.60,North,-999,-999.0,-999.0,95,-99.99,,,-99.99,Homeseer,2013-03-19 15:53:00,
2013-03-19 11:58:00,37.2,36.5,29.61,North,-999,-999.0,-999.0,96,-99.99,,,-99.99,Homeseer,2013-03-19 15:58:00,
2013-03-19 12:03:00,36.6,35.7,29.59,North,-999,-999.0,-999.0,95,-99.99,,,-99.99,Homeseer,2013-03-19 16:03:00,
2013-03-19 12:08:00,36.7,36.0,29.58,North,-999,-999.0,-999.0,96,-99.99,,,-99.99,Homeseer,2013-03-19 16:08:00,
2013-03-19 12:13:00,36.5,35.6,29.56,North,-999,-999.0,-999.0,95,-99.99,,,-99.99,Homeseer,2013-03-19 16:13:00,
2013-03-19 12:18:00,36.6,35.9,29.55,North,-999,-999.0,-999.0,96,-99.99,,,-99.99,Homeseer,2013-03-19 16:18:00,
2013-03-19 12:24:00,37.1,36.5,29.56,North,-999,-999.0,-999.0,97,-99.99,,,-99.99,Homeseer,2013-03-19 16:24:00,
2013-03-19 12:29:00,37.2,36.5,29.57,North,-999,-999.0,-999.0,96,-99.99,,,-99.99,Homeseer,2013-03-19 16:29:00,
2013-03-19 12:34:00,37.1,36.4,29.57,North,-999,-999.0,-999.0,96,-99.99,,,-99.99,Homeseer,2013-03-19 16:34:00,
2013-03-19 12:39:00,37.4,36.7,29.56,North,-999,-999.0,-999.0,96,-99.99,,,-99.99,Homeseer,2013-03-19 16:39:00,
2013-03-19 12:44:00,37.3,36.6,29.55,North,-999,-999.0,-999.0,96,-99.99,,,-99.99,Homeseer,2013-03-19 16:44:00,
2013-03-19 12:49:00,37.0,36.3,29.55,North,-999,-999.0,-999.0,96,-99.99,,,-99.99,Homeseer,2013-03-19 16:49:00,
2013-03-19 12:54:00,36.8,36.1,29.53,North,-999,-999.0,-999.0,96,-99.99,,,-99.99,Homeseer,2013-03-19 16:54:00,
2013-03-19 12:59:00,37.0,36.3,29.53,North,-999,-999.0,-999.0,96,-99.99,,,-99.99,Homeseer,2013-03-19 16:59:00,
2013-03-19 13:05:00,36.6,35.9,29.52,North,-999,-999.0,-999.0,96,-99.99,,,-99.99,Homeseer,2013-03-19 17:05:00,
2013-03-19 13:10:00,36.8,36.2,29.51,North,-999,-999.0,-999.0,97,-99.99,,,-99.99,Homeseer,2013-03-19 17:10:00,
2013-03-19 13:15:00,37.3,36.6,29.52,North,-999,-999.0,-999.0,96,-99.99,,,-99.99,Homeseer,2013-03-19 17:15:00,
2013-03-19 13:20:00,37.2,36.5,29.51,North,-999,-999.0,-999.0,96,-99.99,,,-99.99,Homeseer,2013-03-19 17:20:00,
2013-03-19 13:25:00,36.8,35.9,29.49,North,-999,-999.0,-999.0,95,-99.99,,,-99.99,Homeseer,2013-03-19 17:25:00,
2013-03-19 13:30:00,37.0,36.3,29.49,North,-999,-999.0,-999.0,96,-99.99,,,-99.99,Homeseer,2013-03-19 17:30:00,
2013-03-19 13:35:00,36.8,36.1,29.48,North,-999,-999.0,-999.0,96,-99.99,,,-99.99,Homeseer,2013-03-19 17:35:00,
2013-03-19 13:40:00,36.8,36.1,29.47,North,-999,-999.0,-999.0,96,-99.99,,,-99.99,Homeseer,2013-03-19 17:40:00,
2013-03-19 13:45:00,37.1,36.4,29.47,North,-999,-999.0,-999.0,96,-99.99,,,-99.99,Homeseer,2013-03-19 17:45:00,
2013-03-19 13:50:00,37.0,36.3,29.47,North,-999,-999.0,-999.0,96,-99.99,,,-99.99,Homeseer,2013-03-19 17:50:00,
2013-03-19 13:55:00,37.1,36.4,29.45,North,-999,-999.0,-999.0,96,-99.99,,,-99.99,Homeseer,2013-03-19 17:55:00,
2013-03-19 14:00:00,36.7,36.1,29.46,North,-999,-999.0,-999.0,97,-99.99,,,-99.99,Homeseer,2013-03-19 18:00:00,
2013-03-19 14:05:00,36.8,36.1,29.47,North,-999,-999.0,-999.0,96,-99.99,,,-99.99,Homeseer,2013-03-19 18:05:00,
2013-03-19 14:10:00,37.0,36.3,29.48,North,-999,-999.0,-999.0,96,-99.99,,,-99.99,Homeseer,2013-03-19 18:10:00,
2013-03-19 14:15:00,37.1,36.4,29.48,North,-999,-999.0,-999.0,96,-99.99,,,-99.99,Homeseer,2013-03-19 18:15:00,
2013-03-19 14:20:00,37.2,36.6,29.49,North,-999,-999.0,-999.0,97,-99.99,,,-99.99,Homeseer,2013-03-19 18:20:00,
2013-03-19 14:25:00,37.2,36.8,29.51,North,-999,-999.0,-999.0,98,-99.99,,,-99.99,Homeseer,2013-03-19 18:25:00,
2013-03-19 14:30:00,37.2,36.6,29.53,North,-999,-999.0,-999.0,97,-99.99,,,-99.99,Homeseer,2013-03-19 18:30:00,
2013-03-19 14:35:00,37.2,36.5,29.52,North,-999,-999.0,-999.0,96,-99.99,,,-99.99,Homeseer,2013-03-19 18:35:00,
2013-03-19 14:40:00,37.2,36.6,29.53,North,-999,-999.0,-999.0,97,-99.99,,,-99.99,Homeseer,2013-03-19 18:40:00,
2013-03-19 14:45:00,37.1,36.5,29.53,North,-999,-999.0,-999.0,97,-99.99,,,-99.99,Homeseer,2013-03-19 18:45:00,
2013-03-19 14:50:00,37.0,36.3,29.52,North,-999,-999.0,-999.0,96,-99.99,,,-99.99,Homeseer,2013-03-19 18:50:00,
2013-03-19 14:55:00,36.8,36.1,29.50,North,-999,-999.0,-999.0,96,-99.99,,,-99.99,Homeseer,2013-03-19 18:55:00,
2013-03-19 15:00:00,36.4,35.7,29.49,North,-999,-999.0,-999.0,96,-99.99,,,-99.99,Homeseer,2013-03-19 19:00:00,
2013-03-19 15:05:00,36.5,35.9,29.49,North,-999,-999.0,-999.0,97,-99.99,,,-99.99,Homeseer,2013-03-19 19:05:00,
2013-03-19 15:10:00,36.5,36.1,29.49,North,-999,-999.0,-999.0,98,-99.99,,,-99.99,Homeseer,2013-03-19 19:10:00,
2013-03-19 15:15:00,36.5,35.9,29.48,North,-999,-999.0,-999.0,97,-99.99,,,-99.99,Homeseer,2013-03-19 19:15:00,
2013-03-19 15:20:00,36.6,36.2,29.48,North,-999,-999.0,-999.0,98,-99.99,,,-99.99,Homeseer,2013-03-19 19:20:00,
2013-03-19 15:25:00,36.6,36.0,29.47,North,-999,-999.0,-999.0,97,-99.99,,,-99.99,Homeseer,2013-03-19 19:25:00,
2013-03-19 15:30:00,36.5,36.1,29.47,North,-999,-999.0,-999.0,98,-99.99,,,-99.99,Homeseer,2013-03-19 19:30:00,
2013-03-19 15:35:00,36.6,36.2,29.47,North,-999,-999.0,-999.0,98,-99.99,,,-99.99,Homeseer,2013-03-19 19:35:00,
2013-03-19 15:40:00,36.4,35.8,29.46,North,-999,-999.0,-999.0,97,-99.99,,,-99.99,Homeseer,2013-03-19 19:40:00,
2013-03-19 15:45:00,36.3,35.7,29.44,North,-999,-999.0,-999.0,97,-99.99,,,-99.99,Homeseer,2013-03-19 19:45:00,
2013-03-19 15:50:00,35.8,35.2,29.41,North,-999,-999.0,-999.0,97,-99.99,,,-99.99,Homeseer,2013-03-19 19:50:00,
2013-03-19 15:55:00,35.8,35.2,29.41,North,-999,-999.0,-999.0,97,-99.99,,,-99.99,Homeseer,2013-03-19 19:55:00,
2013-03-19 16:00:00,35.2,34.8,29.35,North,-999,-999.0,-999.0,98,-99.99,,,-99.99,Homeseer,2013-03-19 20:00:00,
2013-03-19 16:05:00,35.7,35.5,29.35,North,-999,-999.0,-999.0,99,-99.99,,,-99.99,Homeseer,2013-03-19 20:05:00,
2013-03-19 16:10:00,35.5,34.9,29.35,North,-999,-999.0,-999.0,97,-99.99,,,-99.99,Homeseer,2013-03-19 20:10:00,
2013-03-19 16:17:00,36.2,35.5,29.34,North,-999,-999.0,-999.0,96,-99.99,,,-99.99,Homeseer,2013-03-19 20:17:00,
2013-03-19 16:22:00,36.2,35.5,29.34,North,-999,-999.0,-999.0,96,-99.99,,,-99.99,Homeseer,2013-03-19 20:22:00,
2013-03-19 16:27:00,36.2,35.5,29.34,North,-999,-999.0,-999.0,96,-99.99,,,-99.99,Homeseer,2013-03-19 20:27:00,
2013-03-19 16:32:00,36.2,35.5,29.34,North,-999,-999.0,-999.0,96,-99.99,,,-99.99,Homeseer,2013-03-19 20:32:00,
2013-03-19 16:38:00,36.2,35.5,29.34,North,-999,-999.0,-999.0,96,-99.99,,,-99.99,Homeseer,2013-03-19 20:38:00,
2013-03-19 16:43:00,36.2,35.5,29.34,North,-999,-999.0,-999.0,96,-99.99,,,-99.99,Homeseer,2013-03-19 20:43:00,
2013-03-19 16:48:00,36.2,35.5,29.34,North,-999,-999.0,-999.0,96,-99.99,,,-99.99,Homeseer,2013-03-19 20:48:00,
2013-03-19 16:53:00,36.2,35.5,29.34,North,-999,-999.0,-999.0,96,-99.99,,,-99.99,Homeseer,2013-03-19 20:53:00,
2013-03-19 16:58:00,36.2,35.5,29.34,North,-999,-999.0,-999.0,96,-99.99,,,-99.99,Homeseer,2013-03-19 20:58:00,
2013-03-19 17:03:00,36.2,35.5,29.34,North,-999,-999.0,-999.0,96,-99.99,,,-99.99,Homeseer,2013-03-19 21:03:00,
2013-03-19 17:08:00,36.2,35.5,29.34,North,-999,-999.0,-999.0,96,-99.99,,,-99.99,Homeseer,2013-03-19 21:08:00,
2013-03-19 17:13:00,36.2,35.5,29.34,North,-999,-999.0,-999.0,96,-99.99,,,-99.99,Homeseer,2013-03-19 21:13:00,
2013-03-19 17:18:00,36.2,35.5,29.34,North,-999,-999.0,-999.0,96,-99.99,,,-99.99,Homeseer,2013-03-19 21:18:00,
2013-03-19 17:23:00,36.2,35.5,29.34,North,-999,-999.0,-999.0,96,-99.99,,,-99.99,Homeseer,2013-03-19 21:23:00,
2013-03-19 17:28:00,36.2,35.5,29.34,North,-999,-999.0,-999.0,96,-99.99,,,-99.99,Homeseer,2013-03-19 21:28:00,
2013-03-19 17:34:00,36.2,35.5,29.34,North,-999,-999.0,-999.0,96,-99.99,,,-99.99,Homeseer,2013-03-19 21:34:00,
2013-03-19 17:39:00,36.2,35.5,29.34,North,-999,-999.0,-999.0,96,-99.99,,,-99.99,Homeseer,2013-03-19 21:39:00,
2013-03-19 17:44:00,36.2,35.5,29.34,North,-999,-999.0,-999.0,96,-99.99,,,-99.99,Homeseer,2013-03-19 21:44:00,
2013-03-19 17:50:00,33.6,32.9,29.33,North,-999,-999.0,-999.0,96,-99.99,,,-99.99,Homeseer,2013-03-19 21:50:00,
2013-03-19 17:55:00,33.4,32.7,29.33,North,-999,-999.0,-999.0,96,-99.99,,,-99.99,Homeseer,2013-03-19 21:55:00,
2013-03-19 18:00:00,33.4,32.7,29.34,North,-999,-999.0,-999.0,96,-99.99,,,-99.99,Homeseer,2013-03-19 22:00:00,
2013-03-19 18:05:00,33.4,32.7,29.33,North,-999,-999.0,-999.0,96,-99.99,,,-99.99,Homeseer,2013-03-19 22:05:00,
2013-03-19 18:10:00,33.4,32.7,29.33,North,-999,-999.0,-999.0,96,-99.99,,,-99.99,Homeseer,2013-03-19 22:10:00,
2013-03-19 18:17:00,33.4,32.7,29.33,North,-999,-999.0,-999.0,96,-99.99,,,-99.99,Homeseer,2013-03-19 22:17:00,
2013-03-19 18:22:00,32.9,32.2,29.32,North,-999,-999.0,-999.0,96,-99.99,,,-99.99,Homeseer,2013-03-19 22:22:00,
2013-03-19 18:28:00,33.2,32.5,29.31,North,-999,-999.0,-999.0,96,-99.99,,,-99.99,Homeseer,2013-03-19 22:28:00,
2013-03-19 18:33:00,33.3,32.8,29.31,North,-999,-999.0,-999.0,97,-99.99,,,-99.99,Homeseer,2013-03-19 22:33:00,
2013-03-19 18:38:00,33.2,32.7,29.31,North,-999,-999.0,-999.0,97,-99.99,,,-99.99,Homeseer,2013-03-19 22:38:00,
2013-03-19 18:43:00,33.0,32.5,29.31,North,-999,-999.0,-999.0,97,-99.99,,,-99.99,Homeseer,2013-03-19 22:43:00,
2013-03-19 18:49:00,32.9,32.4,29.32,North,-999,-999.0,-999.0,97,-99.99,,,-99.99,Homeseer,2013-03-19 22:49:00,
2013-03-19 18:54:00,32.9,32.4,29.31,North,-999,-999.0,-999.0,97,-99.99,,,-99.99,Homeseer,2013-03-19 22:54:00,
2013-03-19 18:59:00,33.2,32.7,29.32,North,-999,-999.0,-999.0,97,-99.99,,,-99.99,Homeseer,2013-03-19 22:59:00,
2013-03-19 19:04:00,33.2,32.5,29.32,North,-999,-999.0,-999.0,96,-99.99,,,-99.99,Homeseer,2013-03-19 23:04:00,
2013-03-19 19:09:00,33.0,32.5,29.33,North,-999,-999.0,-999.0,97,-99.99,,,-99.99,Homeseer,2013-03-19 23:09:00,
2013-03-19 19:14:00,33.2,32.8,29.33,North,-999,-999.0,-999.0,98,-99.99,,,-99.99,Homeseer,2013-03-19 23:14:00,
2013-03-19 19:19:00,33.2,32.8,29.33,North,-999,-999.0,-999.0,98,-99.99,,,-99.99,Homeseer,2013-03-19 23:19:00,
2013-03-19 19:25:00,33.2,32.7,29.33,North,-999,-999.0,-999.0,97,-99.99,,,-99.99,Homeseer,2013-03-19 23:25:00,
2013-03-19 19:30:00,33.0,32.6,29.33,North,-999,-999.0,-999.0,98,-99.99,,,-99.99,Homeseer,2013-03-19 23:30:00,
2013-03-19 19:35:00,33.2,32.8,29.33,North,-999,-999.0,-999.0,98,-99.99,,,-99.99,Homeseer,2013-03-19 23:35:00,
2013-03-19 19:40:00,33.3,32.9,29.33,North,-999,-999.0,-999.0,98,-99.99,,,-99.99,Homeseer,2013-03-19 23:40:00,
2013-03-19 19:45:00,33.3,32.9,29.33,North,-999,-999.0,-999.0,98,-99.99,,,-99.99,Homeseer,2013-03-19 23:45:00,
2013-03-19 19:50:00,33.2,32.8,29.32,North,-999,-999.0,-999.0,98,-99.99,,,-99.99,Homeseer,2013-03-19 23:50:00,
2013-03-19 19:55:00,33.2,32.8,29.32,North,-999,-999.0,-999.0,98,-99.99,,,-99.99,Homeseer,2013-03-19 23:55:00,
2013-03-19 20:00:00,32.9,32.5,29.33,North,-999,-999.0,-999.0,98,-99.99,,,-99.99,Homeseer,2013-03-20 00:00:00,
2013-03-19 20:05:00,32.8,32.4,29.33,North,-999,-999.0,-999.0,98,-99.99,,,-99.99,Homeseer,2013-03-20 00:05:00,
2013-03-19 20:10:00,32.8,32.3,29.33,North,-999,-999.0,-999.0,97,-99.99,,,-99.99,Homeseer,2013-03-20 00:10:00,
2013-03-19 20:15:00,32.8,32.4,29.33,North,-999,-999.0,-999.0,98,-99.99,,,-99.99,Homeseer,2013-03-20 00:15:00,
2013-03-19 20:20:00,32.8,32.3,29.33,North,-999,-999.0,-999.0,97,-99.99,,,-99.99,Homeseer,2013-03-20 00:20:00,
2013-03-19 20:25:00,32.7,32.3,29.33,North,-999,-999.0,-999.0,98,-99.99,,,-99.99,Homeseer,2013-03-20 00:25:00,
2013-03-19 20:30:00,32.5,32.1,29.33,North,-999,-999.0,-999.0,98,-99.99,,,-99.99,Homeseer,2013-03-20 00:30:00,
2013-03-19 20:35:00,32.4,32.0,29.33,North,-999,-999.0,-999.0,98,-99.99,,,-99.99,Homeseer,2013-03-20 00:35:00,
2013-03-19 20:40:00,32.5,32.0,29.34,North,-999,-999.0,-999.0,97,-99.99,,,-99.99,Homeseer,2013-03-20 00:40:00,
2013-03-19 20:45:00,32.4,31.9,29.35,North,-999,-999.0,-999.0,97,-99.99,,,-99.99,Homeseer,2013-03-20 00:45:00,
2013-03-19 20:50:00,32.0,31.6,29.35,North,-999,-999.0,-999.0,98,-99.99,,,-99.99,Homeseer,2013-03-20 00:50:00,
2013-03-19 20:55:00,31.7,31.3,29.36,North,-999,-999.0,-999.0,98,-99.99,,,-99.99,Homeseer,2013-03-20 00:55:00,
2013-03-19 21:00:00,31.8,31.3,29.36,North,-999,-999.0,-999.0,97,-99.99,,,-99.99,Homeseer,2013-03-20 01:00:00,
2013-03-19 21:05:00,31.5,31.0,29.37,North,-999,-999.0,-999.0,97,-99.99,,,-99.99,Homeseer,2013-03-20 01:05:00,
2013-03-19 21:10:00,31.6,31.1,29.37,North,-999,-999.0,-999.0,97,-99.99,,,-99.99,Homeseer,2013-03-20 01:10:00,
2013-03-19 21:15:00,31.4,30.9,29.38,North,-999,-999.0,-999.0,97,-99.99,,,-99.99,Homeseer,2013-03-20 01:15:00,
2013-03-19 21:20:00,31.2,30.5,29.38,North,-999,-999.0,-999.0,96,-99.99,,,-99.99,Homeseer,2013-03-20 01:20:00,
2013-03-19 21:25:00,30.9,30.5,29.38,North,-999,-999.0,-999.0,98,-99.99,,,-99.99,Homeseer,2013-03-20 01:25:00,
2013-03-19 21:30:00,30.8,30.4,29.39,North,-999,-999.0,-999.0,98,-99.99,,,-99.99,Homeseer,2013-03-20 01:30:00,
2013-03-19 21:35:00,30.8,30.3,29.39,North,-999,-999.0,-999.0,97,-99.99,,,-99.99,Homeseer,2013-03-20 01:35:00,
2013-03-19 21:40:00,30.6,29.9,29.39,North,-999,-999.0,-999.0,96,-99.99,,,-99.99,Homeseer,2013-03-20 01:40:00,
2013-03-19 21:45:00,30.7,30.2,29.39,North,-999,-999.0,-999.0,97,-99.99,,,-99.99,Homeseer,2013-03-20 01:45:00,
2013-03-19 21:50:00,30.6,30.1,29.39,North,-999,-999.0,-999.0,97,-99.99,,,-99.99,Homeseer,2013-03-20 01:50:00,
2013-03-19 21:55:00,30.5,30.0,29.40,North,-999,-999.0,-999.0,97,-99.99,,,-99.99,Homeseer,2013-03-20 01:55:00,
2013-03-19 22:00:00,30.4,30.0,29.40,North,-999,-999.0,-999.0,98,-99.99,,,-99.99,Homeseer,2013-03-20 02:00:00,
2013-03-19 22:05:00,30.1,29.4,29.40,North,-999,-999.0,-999.0,96,-99.99,,,-99.99,Homeseer,2013-03-20 02:05:00,
2013-03-19 22:10:00,30.2,29.7,29.41,North,-999,-999.0,-999.0,97,-99.99,,,-99.99,Homeseer,2013-03-20 02:10:00,
2013-03-19 22:15:00,30.2,29.5,29.40,North,-999,-999.0,-999.0,96,-99.99,,,-99.99,Homeseer,2013-03-20 02:15:00,
2013-03-19 22:20:00,30.1,29.4,29.41,North,-999,-999.0,-999.0,96,-99.99,,,-99.99,Homeseer,2013-03-20 02:20:00,
2013-03-19 22:25:00,30.0,29.3,29.41,North,-999,-999.0,-999.0,96,-99.99,,,-99.99,Homeseer,2013-03-20 02:25:00,
2013-03-19 22:30:00,30.0,29.5,29.40,North,-999,-999.0,-999.0,97,-99.99,,,-99.99,Homeseer,2013-03-20 02:30:00,
2013-03-19 22:35:00,30.0,29.3,29.40,North,-999,-999.0,-999.0,96,-99.99,,,-99.99,Homeseer,2013-03-20 02:35:00,
2013-03-19 22:40:00,29.8,29.3,29.40,North,-999,-999.0,-999.0,97,-99.99,,,-99.99,Homeseer,2013-03-20 02:40:00,
2013-03-19 22:45:00,29.7,28.8,29.40,North,-999,-999.0,-999.0,95,-99.99,,,-99.99,Homeseer,2013-03-20 02:45:00,
2013-03-19 22:50:00,29.6,28.7,29.39,North,-999,-999.0,-999.0,95,-99.99,,,-99.99,Homeseer,2013-03-20 02:50:00,
2013-03-19 22:55:00,29.4,28.7,29.40,North,-999,-999.0,-999.0,96,-99.99,,,-99.99,Homeseer,2013-03-20 02:55:00,
2013-03-19 23:00:00,29.2,28.1,29.39,North,-999,-999.0,-999.0,94,-99.99,,,-99.99,Homeseer,2013-03-20 03:00:00,
2013-03-19 23:05:00,29.1,28.2,29.39,North,-999,-999.0,-999.0,95,-99.99,,,-99.99,Homeseer,2013-03-20 03:05:00,
2013-03-19 23:10:00,28.7,27.8,29.40,North,-999,-999.0,-999.0,95,-99.99,,,-99.99,Homeseer,2013-03-20 03:10:00,
2013-03-19 23:15:00,28.6,27.7,29.40,North,-999,-999.0,-999.0,95,-99.99,,,-99.99,Homeseer,2013-03-20 03:15:00,
2013-03-19 23:20:00,28.6,27.7,29.40,North,-999,-999.0,-999.0,95,-99.99,,,-99.99,Homeseer,2013-03-20 03:20:00,
2013-03-19 23:25:00,28.1,27.0,29.39,North,-999,-999.0,-999.0,94,-99.99,,,-99.99,Homeseer,2013-03-20 03:25:00,
2013-03-19 23:30:00,28.0,26.9,29.39,North,-999,-999.0,-999.0,94,-99.99,,,-99.99,Homeseer,2013-03-20 03:30:00,
2013-03-19 23:35:00,27.8,26.6,29.39,North,-999,-999.0,-999.0,93,-99.99,,,-99.99,Homeseer,2013-03-20 03:35:00,
2013-03-19 23:40:00,27.3,26.2,29.39,North,-999,-999.0,-999.0,94,-99.99,,,-99.99,Homeseer,2013-03-20 03:40:00,
2013-03-19 23:45:00,27.1,25.9,29.39,North,-999,-999.0,-999.0,93,-99.99,,,-99.99,Homeseer,2013-03-20 03:45:00,
2013-03-19 23:50:00,26.9,25.9,29.39,North,-999,-999.0,-999.0,94,-99.99,,,-99.99,Homeseer,2013-03-20 03:50:00,
2013-03-19 23:55:00,26.9,25.9,29.39,North,-999,-999.0,-999.0,94,-99.99,,,-99.99,Homeseer,2013-03-20 03:55:00,